Location: Bratislava
(48.1500°N, 17.1170°E)
Time: 09:28:17
(UTC+02:00)

N. Korean satellite - Visible Passes

Search period start: 26 March 2017 00:00
Search period end: 05 April 2017 01:00
Orbit: 461 x 520 km, 97.2° (Epoch: 24 March)

Date Brightness Start Highest point End Pass type
(mag) Time Alt. Az. Time Alt. Az. Time Alt. Az.
26 Mar 9.6 19:59:28 10° SW 20:02:10 20° W 20:04:51 10° NW visible
29 Mar 10.3 20:27:47 10° W 20:28:17 10° W 20:28:46 10° W visible
30 Mar 9.6 20:03:00 10° SW 20:05:30 18° W 20:08:00 10° NW visible
03 Apr 9.7 20:06:27 10° SW 20:08:45 16° W 20:11:02 10° NW visible
